SDM6865 UUEE-UHMA

Flight info

Callsign SDM6865
Flight time 7h 32m
Altitude 35000
Route N0490F350 RILPO T753 NRM M131 TUMOK G7 DILON/K0911F370 G7 LURET/K0909F390 G7 TOMRI
Aircraft B77W/H-SDE1E2E3FGHIJ2J3J4J5M1RWXY/LB1D1

Departure

Time 2026-04-11 08:51
Airport Sheremetyevo International Airport (UUEE)

Arrival

Time 2026-04-11 16:23
Airport Ugolny Yuri Ryktheu Airport (UHMA)
Time Latitude Longitude Altitude Speed Heading
2026-04-11 08:13 55.97622 37.40423 644 ft 0 kts 345°
2026-04-11 08:45 55.97656 37.40405 646 ft 8 kts 338°
2026-04-11 08:45 55.97683 37.40321 648 ft 8 kts 271°
2026-04-11 08:46 55.97673 37.40217 647 ft 9 kts 254°
2026-04-11 08:46 55.97662 37.40149 647 ft 9 kts 254°
2026-04-11 08:46 55.97643 37.40029 649 ft 12 kts 255°
2026-04-11 08:46 55.97620 37.39871 649 ft 14 kts 255°
2026-04-11 08:47 55.97545 37.39777 648 ft 11 kts 172°
2026-04-11 08:47 55.97494 37.39796 647 ft 11 kts 161°
2026-04-11 08:47 55.97414 37.39840 651 ft 13 kts 163°
2026-04-11 08:47 55.97333 37.39812 647 ft 13 kts 235°
2026-04-11 08:48 55.97304 37.39648 644 ft 17 kts 255°
2026-04-11 08:48 55.97268 37.39402 645 ft 24 kts 255°
2026-04-11 08:48 55.97225 37.39121 647 ft 24 kts 255°
2026-04-11 08:48 55.97184 37.38849 649 ft 18 kts 255°
2026-04-11 08:49 55.97159 37.38693 646 ft 10 kts 243°
2026-04-11 08:49 55.97093 37.38668 646 ft 11 kts 169°
2026-04-11 08:49 55.97022 37.38705 646 ft 11 kts 150°
2026-04-11 08:49 55.97007 37.38832 644 ft 14 kts 77°
2026-04-11 08:50 55.97062 37.39199 648 ft 56 kts 75°
2026-04-11 08:50 55.97222 37.40271 644 ft 121 kts 75°
2026-04-11 08:50 55.97490 37.42043 646 ft 173 kts 74°
2026-04-11 08:50 55.97851 37.44254 954 ft 183 kts 74°
2026-04-11 08:51 55.98169 37.46396 1712 ft 178 kts 77°
2026-04-11 08:51 55.98462 37.48564 2362 ft 178 kts 78°
2026-04-11 08:51 55.98740 37.50746 2790 ft 182 kts 78°
2026-04-11 08:51 55.99057 37.52929 3183 ft 186 kts 76°
2026-04-11 08:52 55.99690 37.57529 3965 ft 201 kts 79°
2026-04-11 08:52 56.00028 37.60060 4179 ft 221 kts 79°
2026-04-11 08:52 56.00403 37.62821 4579 ft 233 kts 79°
2026-04-11 08:53 56.00803 37.65682 5112 ft 241 kts 77°
2026-04-11 08:53 56.01608 37.68406 5468 ft 259 kts 47°
2026-04-11 08:53 56.03095 37.70253 6096 ft 264 kts 36°
2026-04-11 08:53 56.04693 37.71956 6585 ft 270 kts 37°
2026-04-11 08:54 56.06292 37.73705 7253 ft 269 kts 37°
2026-04-11 08:54 56.07876 37.75529 7718 ft 270 kts 45°
2026-04-11 08:54 56.09201 37.77818 8285 ft 267 kts 52°
2026-04-11 08:54 56.10472 37.80247 8909 ft 268 kts 52°
2026-04-11 08:55 56.11768 37.82671 9530 ft 270 kts 51°
2026-04-11 08:55 56.13098 37.85100 10060 ft 274 kts 51°
2026-04-11 08:55 56.14598 37.87254 10469 ft 288 kts 32°
2026-04-11 08:55 56.16594 37.88335 10627 ft 315 kts
2026-04-11 08:56 56.18809 37.88332 11095 ft 322 kts
2026-04-11 08:56 56.21118 37.88298 11288 ft 341 kts
2026-04-11 08:56 56.23547 37.88498 11545 ft 357 kts
2026-04-11 08:56 56.26094 37.88865 11824 ft 374 kts
2026-04-11 08:57 56.28719 37.89266 12425 ft 382 kts
2026-04-11 08:57 56.31351 37.89612 13190 ft 387 kts
2026-04-11 08:57 56.34045 37.89948 14020 ft 389 kts
2026-04-11 08:57 56.36757 37.90295 14749 ft 392 kts
2026-04-11 08:58 56.39493 37.90653 15458 ft 396 kts
2026-04-11 08:58 56.42264 37.91024 16170 ft 400 kts
2026-04-11 08:58 56.45048 37.91404 16874 ft 403 kts
2026-04-11 08:58 56.47865 37.91788 17588 ft 407 kts
2026-04-11 08:59 56.50693 37.92175 18290 ft 411 kts
2026-04-11 08:59 56.53568 37.92567 18926 ft 414 kts
2026-04-11 08:59 56.56459 37.92961 19543 ft 417 kts
2026-04-11 08:59 56.59360 37.93356 20167 ft 420 kts
2026-04-11 09:00 56.62292 37.93757 20772 ft 423 kts
2026-04-11 09:00 56.65231 37.94160 21355 ft 426 kts
2026-04-11 09:00 56.68133 37.94973 21749 ft 419 kts 24°
2026-04-11 09:00 56.70689 37.97350 22195 ft 410 kts 43°
2026-04-11 09:01 56.72756 38.00814 22823 ft 402 kts 50°
2026-04-11 09:01 56.74734 38.04452 23402 ft 405 kts 50°
2026-04-11 09:01 56.76731 38.08110 23959 ft 408 kts 50°
2026-04-11 09:01 56.78751 38.11780 24418 ft 411 kts 50°
2026-04-11 09:02 56.80761 38.15413 24850 ft 414 kts 50°
2026-04-11 09:02 56.82823 38.19124 25304 ft 416 kts 50°
2026-04-11 09:02 56.84892 38.22850 25740 ft 419 kts 50°
2026-04-11 09:02 56.86970 38.26597 26160 ft 422 kts 50°
2026-04-11 09:03 56.89138 38.30286 26571 ft 426 kts 47°
2026-04-11 09:03 56.91389 38.33842 26989 ft 430 kts 46°
2026-04-11 09:03 56.93683 38.37367 27387 ft 433 kts 45°
2026-04-11 09:03 56.96002 38.40919 27771 ft 435 kts 45°
2026-04-11 09:04 56.98326 38.44500 28155 ft 437 kts 45°
2026-04-11 09:04 57.00654 38.48119 28525 ft 439 kts 46°
2026-04-11 09:04 57.02989 38.51775 28870 ft 442 kts 46°
2026-04-11 09:04 57.05329 38.55460 29195 ft 444 kts 46°
2026-04-11 09:05 57.07647 38.59123 29515 ft 446 kts 46°
2026-04-11 09:05 57.10002 38.62854 29838 ft 448 kts 46°
2026-04-11 09:05 57.12369 38.66611 30129 ft 449 kts 46°
2026-04-11 09:05 57.14738 38.70377 30457 ft 450 kts 46°
2026-04-11 09:06 57.17106 38.74145 30744 ft 450 kts 46°
2026-04-11 09:06 57.19485 38.77938 31006 ft 451 kts 46°
2026-04-11 09:06 57.21833 38.81689 31256 ft 452 kts 46°
2026-04-11 09:06 57.24212 38.85496 31500 ft 453 kts 46°
2026-04-11 09:07 57.26625 38.89365 31762 ft 453 kts 46°
2026-04-11 09:07 57.28971 38.93134 32022 ft 454 kts 45°
2026-04-11 09:07 57.31360 38.96978 32232 ft 455 kts 45°
2026-04-11 09:07 57.33747 39.00826 32484 ft 455 kts 45°
2026-04-11 09:08 57.36135 39.04681 32731 ft 456 kts 45°
2026-04-11 09:08 57.38525 39.08547 32950 ft 457 kts 45°
2026-04-11 09:08 57.40920 39.12429 33162 ft 458 kts 45°
2026-04-11 09:08 57.43320 39.16326 33216 ft 461 kts 45°
2026-04-11 09:09 57.48148 39.24182 33266 ft 459 kts 45°
2026-04-11 09:09 57.52822 39.31793 33269 ft 455 kts 46°
2026-04-11 09:10 57.57675 39.39709 33273 ft 454 kts 46°
2026-04-11 09:10 57.62426 39.47491 33276 ft 453 kts 46°
2026-04-11 09:11 57.67127 39.55220 33288 ft 454 kts 46°
2026-04-11 09:11 57.71869 39.63046 33291 ft 454 kts 46°
2026-04-11 09:12 57.76603 39.70887 33285 ft 455 kts 46°
2026-04-11 09:12 57.81343 39.78768 33292 ft 455 kts 46°
2026-04-11 09:13 57.86082 39.86670 33287 ft 454 kts 46°
2026-04-11 09:13 57.90787 39.94578 33292 ft 454 kts 47°
2026-04-11 09:14 57.95447 40.02484 33295 ft 453 kts 47°
2026-04-11 09:14 58.00115 40.10430 33294 ft 452 kts 47°
2026-04-11 09:15 58.04774 40.18384 33300 ft 450 kts 47°
2026-04-11 09:15 58.09410 40.26328 33297 ft 450 kts 47°
2026-04-11 09:16 58.14034 40.34276 33318 ft 449 kts 47°
2026-04-11 09:16 58.18647 40.42222 33318 ft 448 kts 47°
2026-04-11 09:17 58.23279 40.50136 33311 ft 447 kts 47°
2026-04-11 09:17 58.27899 40.58043 33319 ft 446 kts 47°
2026-04-11 09:18 58.32500 40.65957 33323 ft 445 kts 48°
2026-04-11 09:18 58.37058 40.73835 33316 ft 445 kts 48°
2026-04-11 09:19 58.41633 40.81770 33325 ft 444 kts 48°
2026-04-11 09:19 58.46212 40.89741 33327 ft 443 kts 48°
2026-04-11 09:20 58.50735 40.97645 33337 ft 442 kts 48°
2026-04-11 09:20 58.55274 41.05604 33338 ft 442 kts 49°
2026-04-11 09:21 58.59797 41.13566 33337 ft 441 kts 49°
2026-04-11 09:21 58.64315 41.21547 33336 ft 440 kts 49°
2026-04-11 09:22 58.68811 41.29520 33339 ft 440 kts 49°
2026-04-11 09:22 58.73298 41.37503 33340 ft 439 kts 49°
2026-04-11 09:23 58.77817 41.45324 33349 ft 442 kts 45°
2026-04-11 09:23 58.82779 41.52404 33343 ft 443 kts 43°
2026-04-11 09:24 58.87760 41.59412 33351 ft 442 kts 43°
2026-04-11 09:24 58.92715 41.66455 33342 ft 442 kts 44°
2026-04-11 09:25 58.97626 41.73494 33355 ft 440 kts 44°
2026-04-11 09:25 59.02542 41.80573 33356 ft 440 kts 44°
2026-04-11 09:26 59.07449 41.87665 33354 ft 439 kts 44°
2026-04-11 09:26 59.12340 41.94759 33357 ft 438 kts 44°
2026-04-11 09:27 59.17219 42.01860 33361 ft 437 kts 44°
2026-04-11 09:27 59.22082 42.08966 33360 ft 436 kts 44°
2026-04-11 09:28 59.26936 42.16084 33367 ft 436 kts 45°
2026-04-11 09:28 59.31750 42.23169 33352 ft 435 kts 45°
2026-04-11 09:29 59.36581 42.30301 33358 ft 435 kts 45°
2026-04-11 09:29 59.41713 42.36789 33363 ft 442 kts 38°
2026-04-11 09:30 59.47099 42.42720 33361 ft 442 kts 38°
2026-04-11 09:30 59.51560 42.47642 33368 ft 442 kts 38°
2026-04-11 09:31 59.57792 42.54593 33366 ft 442 kts 38°
2026-04-11 09:31 59.63130 42.60597 33372 ft 442 kts 38°
2026-04-11 09:32 59.67567 42.65608 33370 ft 441 kts 38°
2026-04-11 09:32 59.72909 42.71661 33367 ft 441 kts 38°
2026-04-11 09:33 59.78236 42.77721 33368 ft 441 kts 38°
2026-04-11 09:33 59.83575 42.83814 33370 ft 441 kts 38°
2026-04-11 09:34 59.88872 42.89882 33377 ft 442 kts 38°
2026-04-11 09:34 59.94199 42.96008 33376 ft 442 kts 38°
2026-04-11 09:35 59.99523 43.02153 33372 ft 442 kts 38°
2026-04-11 09:35 60.04847 43.08320 33370 ft 442 kts 38°
2026-04-11 09:36 60.10164 43.14503 33373 ft 442 kts 38°
2026-04-11 09:36 60.15454 43.20679 33373 ft 443 kts 38°
2026-04-11 09:37 60.20783 43.26923 33378 ft 443 kts 38°
2026-04-11 09:37 60.26117 43.33198 33376 ft 444 kts 38°
2026-04-11 09:38 60.31461 43.39507 33375 ft 444 kts 38°
2026-04-11 09:38 60.36803 43.45838 33375 ft 445 kts 38°
2026-04-11 09:39 60.42111 43.52152 33374 ft 445 kts 38°
2026-04-11 09:39 60.47454 43.58536 33375 ft 446 kts 38°
2026-04-11 09:40 60.52800 43.64945 33376 ft 446 kts 37°
2026-04-11 09:40 60.58151 43.71385 33378 ft 446 kts 37°
2026-04-11 09:41 60.63494 43.77841 33378 ft 447 kts 37°
2026-04-11 09:41 60.68853 43.84280 33383 ft 448 kts 37°
2026-04-11 09:42 60.74240 43.90561 33381 ft 449 kts 36°
2026-04-11 09:43 60.82408 44.00130 33374 ft 449 kts 36°
2026-04-11 09:43 60.87789 44.06493 33375 ft 449 kts 36°
2026-04-11 09:44 60.93196 44.12911 33378 ft 450 kts 36°
2026-04-11 09:44 60.98620 44.19366 33386 ft 450 kts 36°
2026-04-11 09:45 61.04040 44.25836 33382 ft 450 kts 36°
2026-04-11 09:45 61.09457 44.32329 33386 ft 450 kts 36°
2026-04-11 09:46 61.14880 44.38856 33384 ft 450 kts 36°
2026-04-11 09:46 61.20263 44.45363 33380 ft 451 kts 36°
2026-04-11 09:47 61.25678 44.51934 33379 ft 451 kts 36°
2026-04-11 09:47 61.31098 44.58537 33386 ft 452 kts 36°
2026-04-11 09:48 61.36522 44.65171 33385 ft 452 kts 36°
2026-04-11 09:48 61.41954 44.71845 33384 ft 453 kts 35°
2026-04-11 09:49 61.47377 44.78533 33387 ft 453 kts 35°
2026-04-11 09:49 61.52816 44.85269 33385 ft 454 kts 35°
2026-04-11 09:50 61.58249 44.92024 33384 ft 454 kts 35°
2026-04-11 09:50 61.63680 44.98806 33384 ft 455 kts 35°
2026-04-11 09:51 61.69121 45.05626 33388 ft 455 kts 35°
2026-04-11 09:51 61.74584 45.12350 33379 ft 456 kts 34°
2026-04-11 09:52 61.80066 45.18936 33379 ft 456 kts 34°
2026-04-11 09:52 61.85580 45.25592 33371 ft 456 kts 34°
2026-04-11 09:53 61.91079 45.32287 33383 ft 456 kts 34°
2026-04-11 09:53 61.96574 45.39017 33376 ft 455 kts 34°
2026-04-11 09:54 62.02053 45.45758 33378 ft 455 kts 33°
2026-04-11 09:54 62.07542 45.52539 33372 ft 455 kts 33°
2026-04-11 09:55 62.13022 45.59335 33373 ft 455 kts 33°
2026-04-11 09:55 62.18503 45.66163 33372 ft 455 kts 33°
2026-04-11 09:56 62.23970 45.73002 33367 ft 455 kts 33°
2026-04-11 09:56 62.29402 45.79826 33367 ft 456 kts 33°
2026-04-11 09:57 62.34872 45.86726 33359 ft 456 kts 33°
2026-04-11 09:57 62.40343 45.93658 33355 ft 456 kts 33°
2026-04-11 09:58 62.45823 46.00632 33358 ft 457 kts 33°
2026-04-11 09:58 62.51295 46.07625 33349 ft 457 kts 33°
2026-04-11 09:59 62.56768 46.14646 33349 ft 457 kts 33°
2026-04-11 09:59 62.62233 46.21740 33351 ft 457 kts 33°
2026-04-11 10:00 62.67653 46.28896 33346 ft 458 kts 33°
2026-04-11 10:00 62.73120 46.36145 33332 ft 457 kts 33°
2026-04-11 10:01 62.78553 46.43367 33342 ft 457 kts 33°
2026-04-11 10:01 62.83955 46.50575 33348 ft 458 kts 33°
2026-04-11 10:02 62.89400 46.57874 33341 ft 459 kts 33°
2026-04-11 10:02 62.94840 46.65197 33336 ft 459 kts 33°
2026-04-11 10:03 63.00318 46.72604 33335 ft 458 kts 33°
2026-04-11 10:03 63.05711 46.79927 33334 ft 458 kts 33°
2026-04-11 10:04 63.11126 46.87312 33335 ft 457 kts 33°
2026-04-11 10:04 63.16541 46.94715 33333 ft 457 kts 33°
2026-04-11 10:05 63.21945 47.02132 33332 ft 457 kts 33°
2026-04-11 10:05 63.27342 47.09575 33332 ft 457 kts 33°
2026-04-11 10:06 63.32740 47.17054 33330 ft 457 kts 33°
2026-04-11 10:06 63.38138 47.24567 33332 ft 457 kts 33°
2026-04-11 10:07 63.43527 47.32101 33317 ft 457 kts 33°
2026-04-11 10:07 63.48925 47.39680 33328 ft 458 kts 33°
2026-04-11 10:08 63.54280 47.47234 33317 ft 458 kts 32°
2026-04-11 10:08 63.59705 47.54922 33323 ft 458 kts 32°
2026-04-11 10:09 63.65090 47.62589 33323 ft 458 kts 32°
2026-04-11 10:09 63.70463 47.70270 33318 ft 458 kts 32°
2026-04-11 10:10 63.75839 47.77975 33323 ft 457 kts 32°
2026-04-11 10:10 63.81207 47.85693 33320 ft 457 kts 32°
2026-04-11 10:11 63.86571 47.93443 33315 ft 457 kts 32°
2026-04-11 10:11 63.91928 48.01219 33318 ft 456 kts 32°
2026-04-11 10:12 63.97271 48.09014 33313 ft 456 kts 32°
2026-04-11 10:12 64.02578 48.16789 33312 ft 456 kts 32°
2026-04-11 10:13 64.07946 48.24690 33307 ft 456 kts 32°
2026-04-11 10:13 64.13225 48.32499 33311 ft 455 kts 32°
2026-04-11 10:14 64.18542 48.40398 33305 ft 455 kts 32°
2026-04-11 10:14 64.23850 48.48321 33312 ft 455 kts 32°
2026-04-11 10:15 64.29152 48.56271 33309 ft 454 kts 32°
2026-04-11 10:15 64.34445 48.64246 33311 ft 454 kts 32°
2026-04-11 10:16 64.38835 48.70889 33306 ft 454 kts 32°
2026-04-11 10:16 64.44116 48.78910 33311 ft 453 kts 32°
2026-04-11 10:17 64.49390 48.86948 33304 ft 453 kts 32°
2026-04-11 10:17 64.54654 48.94985 33307 ft 453 kts 32°
2026-04-11 10:18 64.59907 49.03044 33305 ft 452 kts 32°
2026-04-11 10:18 64.65156 49.11139 33317 ft 452 kts 32°
2026-04-11 10:19 64.70389 49.19248 33293 ft 451 kts 32°
2026-04-11 10:19 64.75619 49.27388 33309 ft 451 kts 32°
2026-04-11 10:20 64.80847 49.35562 33293 ft 451 kts 32°
2026-04-11 10:20 64.86054 49.43736 33296 ft 450 kts 32°
2026-04-11 10:21 64.91261 49.51949 33291 ft 450 kts 32°
2026-04-11 10:21 64.96425 49.60133 33297 ft 449 kts 32°
2026-04-11 10:22 65.01602 49.68378 33292 ft 449 kts 32°
2026-04-11 10:22 65.06769 49.76644 33294 ft 448 kts 32°
2026-04-11 10:23 65.11923 49.84930 33287 ft 447 kts 32°
2026-04-11 10:23 65.17070 49.93245 33295 ft 447 kts 32°
2026-04-11 10:24 65.22205 50.01580 33281 ft 446 kts 31°
2026-04-11 10:24 65.27330 50.09933 33285 ft 445 kts 31°
2026-04-11 10:25 65.32628 50.17451 33284 ft 442 kts 24°
2026-04-11 10:25 65.38185 50.23790 33290 ft 442 kts 23°
2026-04-11 10:26 65.43735 50.30135 33287 ft 442 kts 23°
2026-04-11 10:26 65.49272 50.36559 33289 ft 442 kts 23°
2026-04-11 10:27 65.54769 50.42996 33277 ft 441 kts 23°
2026-04-11 10:27 65.60289 50.49490 33285 ft 441 kts 23°
2026-04-11 10:28 65.65804 50.56009 33268 ft 441 kts 23°
2026-04-11 10:28 65.71315 50.62554 33274 ft 440 kts 23°
2026-04-11 10:29 65.76811 50.69110 33277 ft 439 kts 23°
2026-04-11 10:29 65.82292 50.75678 33277 ft 439 kts 23°
2026-04-11 10:30 65.87739 50.82215 33264 ft 438 kts 23°
2026-04-11 10:30 65.93241 50.88844 33271 ft 437 kts 23°
2026-04-11 10:31 65.98699 50.95454 33264 ft 437 kts 23°
2026-04-11 10:31 66.04142 51.02079 33261 ft 436 kts 23°
2026-04-11 10:32 66.09541 51.08683 33257 ft 436 kts 23°
2026-04-11 10:32 66.14971 51.15353 33258 ft 435 kts 23°
2026-04-11 10:33 66.20390 51.22044 33248 ft 435 kts 23°
2026-04-11 10:33 66.25788 51.28743 33252 ft 434 kts 23°
2026-04-11 10:34 66.31199 51.35490 33245 ft 434 kts 23°
2026-04-11 10:34 66.36601 51.42257 33253 ft 434 kts 23°
2026-04-11 10:35 66.41987 51.49038 33242 ft 434 kts 23°
2026-04-11 10:35 66.47365 51.55842 33242 ft 433 kts 23°
2026-04-11 10:36 66.52731 51.62664 33239 ft 433 kts 23°
2026-04-11 10:36 66.58105 51.69528 33240 ft 432 kts 23°
2026-04-11 10:37 66.63457 51.76399 33231 ft 432 kts 23°
2026-04-11 10:37 66.68814 51.83312 33138 ft 435 kts 22°
2026-04-11 10:38 66.74257 51.90358 33231 ft 445 kts 22°
2026-04-11 10:38 66.82637 52.01276 33241 ft 457 kts 22°
2026-04-11 10:39 66.88310 52.08688 33234 ft 459 kts 22°
2026-04-11 10:39 66.93988 52.16148 33225 ft 458 kts 22°
2026-04-11 10:40 66.99641 52.23615 33222 ft 457 kts 22°
2026-04-11 10:40 67.05284 52.31108 33222 ft 456 kts 22°
2026-04-11 10:41 67.10903 52.38607 33220 ft 455 kts 22°
2026-04-11 10:41 67.16517 52.46140 33219 ft 454 kts 22°
2026-04-11 10:42 67.22120 52.53695 33214 ft 454 kts 22°
2026-04-11 10:42 67.27717 52.61279 33214 ft 454 kts 22°
2026-04-11 10:43 67.36104 52.72699 33213 ft 455 kts 22°
2026-04-11 10:44 67.41702 52.80374 33205 ft 455 kts 22°
2026-04-11 10:44 67.47292 52.88079 33202 ft 455 kts 22°
2026-04-11 10:45 67.52900 52.95853 33201 ft 456 kts 22°
2026-04-11 10:45 67.58502 53.03655 33196 ft 456 kts 22°
2026-04-11 10:46 67.63769 53.13107 33198 ft 465 kts 35°
2026-04-11 10:46 67.68272 53.25449 33193 ft 474 kts 45°
2026-04-11 10:47 67.72347 53.39281 33185 ft 476 kts 46°
2026-04-11 10:47 67.76395 53.53164 33181 ft 475 kts 46°
2026-04-11 10:48 67.80459 53.66966 33188 ft 476 kts 46°
2026-04-11 10:48 67.84528 53.80802 33173 ft 476 kts 46°
2026-04-11 10:49 67.88486 53.94352 33161 ft 478 kts 46°
2026-04-11 10:49 67.92546 54.08350 33156 ft 477 kts 46°
2026-04-11 10:50 67.96556 54.22402 33158 ft 476 kts 46°
2026-04-11 10:50 68.00548 54.36510 33166 ft 476 kts 46°
2026-04-11 10:51 68.04515 54.50600 33148 ft 477 kts 46°
2026-04-11 10:51 68.08491 54.64808 33140 ft 477 kts 47°
2026-04-11 10:52 68.12470 54.79118 33147 ft 478 kts 47°
2026-04-11 10:52 68.16430 54.93448 33138 ft 478 kts 47°
2026-04-11 10:53 68.20390 55.07863 33133 ft 479 kts 47°
2026-04-11 10:53 68.24321 55.22212 33116 ft 479 kts 47°
2026-04-11 10:54 68.28264 55.36692 33124 ft 479 kts 47°
2026-04-11 10:54 68.32204 55.51259 33132 ft 479 kts 47°
2026-04-11 10:55 68.36143 55.65927 33111 ft 480 kts 47°
2026-04-11 10:55 68.39396 55.78115 33111 ft 480 kts 47°
2026-04-11 10:56 68.43928 55.95214 33110 ft 480 kts 47°
2026-04-11 10:56 68.47189 56.07599 33096 ft 479 kts 47°
2026-04-11 10:57 68.51066 56.22415 33085 ft 479 kts 47°
2026-04-11 10:57 68.54899 56.37163 33101 ft 479 kts 47°
2026-04-11 10:58 68.58749 56.52075 33088 ft 479 kts 47°
2026-04-11 10:58 68.62589 56.67055 33085 ft 479 kts 47°
2026-04-11 10:59 68.66389 56.81980 33078 ft 479 kts 47°
2026-04-11 10:59 68.70203 56.97052 33073 ft 479 kts 47°
2026-04-11 11:00 68.74013 57.12187 33066 ft 479 kts 47°
2026-04-11 11:00 68.77785 57.27203 33062 ft 479 kts 47°
2026-04-11 11:01 68.81576 57.42399 33061 ft 479 kts 47°
2026-04-11 11:01 68.85345 57.57618 33062 ft 479 kts 47°
2026-04-11 11:02 68.89108 57.72916 33051 ft 479 kts 47°
2026-04-11 11:02 68.92873 57.88198 33053 ft 478 kts 47°
2026-04-11 11:03 68.96680 58.03223 33048 ft 478 kts 46°
2026-04-11 11:03 69.00509 58.18374 33045 ft 478 kts 46°
2026-04-11 11:04 69.04313 58.33603 33041 ft 478 kts 47°
2026-04-11 11:04 69.08100 58.48905 33037 ft 478 kts 47°
2026-04-11 11:05 69.11872 58.64259 33034 ft 478 kts 47°
2026-04-11 11:05 69.15629 58.79660 33031 ft 478 kts 47°
2026-04-11 11:06 69.19391 58.95170 33018 ft 478 kts 47°
2026-04-11 11:06 69.23037 59.10693 33018 ft 479 kts 48°
2026-04-11 11:07 69.26623 59.26491 33018 ft 479 kts 48°
2026-04-11 11:07 69.30209 59.42376 33022 ft 478 kts 48°
2026-04-11 11:08 69.33783 59.58250 33018 ft 478 kts 48°
2026-04-11 11:08 69.37339 59.74137 33013 ft 478 kts 48°
2026-04-11 11:09 69.40888 59.90109 33015 ft 478 kts 48°
2026-04-11 11:09 69.44418 60.06117 33010 ft 477 kts 48°
2026-04-11 11:10 69.47932 60.22177 33017 ft 477 kts 49°
2026-04-11 11:10 69.51411 60.38182 33017 ft 477 kts 49°
2026-04-11 11:11 69.54900 60.54336 33012 ft 477 kts 49°
2026-04-11 11:11 69.58387 60.70526 33005 ft 478 kts 49°
2026-04-11 11:12 69.61862 60.86763 33010 ft 478 kts 49°
2026-04-11 11:12 69.65331 61.03108 33013 ft 479 kts 49°
2026-04-11 11:13 69.68787 61.19525 33014 ft 480 kts 49°
2026-04-11 11:13 69.72233 61.36010 33015 ft 480 kts 49°
2026-04-11 11:14 69.75660 61.52393 33010 ft 478 kts 47°
2026-04-11 11:14 69.79681 61.67347 33012 ft 465 kts 39°
2026-04-11 11:15 69.83998 61.81329 33010 ft 465 kts 39°
2026-04-11 11:15 69.88263 61.95383 33012 ft 466 kts 39°
2026-04-11 11:16 69.92518 62.09641 33016 ft 466 kts 39°
2026-04-11 11:16 69.96739 62.23834 33019 ft 466 kts 39°
2026-04-11 11:17 70.01001 62.38163 33020 ft 467 kts 40°
2026-04-11 11:17 70.05252 62.52545 33018 ft 467 kts 40°
2026-04-11 11:18 70.09487 62.66987 33016 ft 467 kts 40°
2026-04-11 11:18 70.13715 62.81509 33018 ft 467 kts 41°
2026-04-11 11:19 70.17929 62.96084 33014 ft 468 kts 41°
2026-04-11 11:19 70.22123 63.10691 33015 ft 468 kts 41°
2026-04-11 11:20 70.26315 63.25391 33017 ft 468 kts 41°
2026-04-11 11:20 70.30507 63.40193 33007 ft 469 kts 42°
2026-04-11 11:21 70.34692 63.55074 33013 ft 469 kts 42°
2026-04-11 11:21 70.38841 63.69931 33013 ft 469 kts 42°
2026-04-11 11:22 70.42999 63.84925 33014 ft 470 kts 43°
2026-04-11 11:22 70.47153 64.00014 33013 ft 470 kts 43°
2026-04-11 11:23 70.51295 64.15164 33013 ft 470 kts 43°
2026-04-11 11:23 70.55432 64.30405 33013 ft 471 kts 43°
2026-04-11 11:24 70.59556 64.45708 33010 ft 471 kts 44°
2026-04-11 11:24 70.63639 64.60969 33000 ft 471 kts 44°
2026-04-11 11:25 70.67736 64.76391 33004 ft 471 kts 44°
2026-04-11 11:25 70.71822 64.91884 33002 ft 471 kts 45°
2026-04-11 11:26 70.75898 65.07454 33006 ft 471 kts 45°
2026-04-11 11:26 70.79959 65.23077 33003 ft 471 kts 45°
2026-04-11 11:27 70.83979 65.38659 33003 ft 471 kts 45°
2026-04-11 11:27 70.88012 65.54404 33006 ft 471 kts 45°
2026-04-11 11:28 70.92031 65.70199 33005 ft 471 kts 46°
2026-04-11 11:28 70.96043 65.86092 33005 ft 471 kts 46°
2026-04-11 11:29 71.02034 66.10024 33004 ft 471 kts 46°
2026-04-11 11:29 71.06008 66.26049 32999 ft 471 kts 47°
2026-04-11 11:30 71.09967 66.42127 33000 ft 471 kts 47°
2026-04-11 11:30 71.13920 66.58310 33001 ft 471 kts 47°
2026-04-11 11:31 71.17827 66.74414 33007 ft 471 kts 47°
2026-04-11 11:31 71.21741 66.90803 33004 ft 473 kts 50°
2026-04-11 11:32 71.25202 67.08319 33014 ft 476 kts 54°
2026-04-11 11:32 71.28540 67.26194 33017 ft 477 kts 54°
2026-04-11 11:33 71.31867 67.44088 33004 ft 477 kts 54°
2026-04-11 11:33 71.35174 67.61878 33009 ft 477 kts 54°
2026-04-11 11:34 71.38499 67.79861 33004 ft 477 kts 55°
2026-04-11 11:34 71.41809 67.97906 33009 ft 477 kts 55°
2026-04-11 11:35 71.45091 68.15961 33009 ft 477 kts 55°
2026-04-11 11:35 71.48345 68.34022 33006 ft 477 kts 56°
2026-04-11 11:36 71.51594 68.52214 33008 ft 477 kts 56°
2026-04-11 11:36 71.54827 68.70477 33010 ft 477 kts 56°
2026-04-11 11:37 71.58042 68.88799 33010 ft 477 kts 56°
2026-04-11 11:37 71.61244 69.07207 33009 ft 477 kts 57°
2026-04-11 11:38 71.63892 69.22556 33012 ft 477 kts 57°
2026-04-11 11:38 71.67058 69.41060 32995 ft 476 kts 57°
2026-04-11 11:39 71.70209 69.59642 32997 ft 476 kts 57°
2026-04-11 11:39 71.73317 69.78135 33008 ft 476 kts 58°
2026-04-11 11:40 71.76427 69.96807 33002 ft 476 kts 58°
2026-04-11 11:40 71.79524 70.15576 33002 ft 476 kts 58°
2026-04-11 11:41 71.82573 70.34220 33002 ft 476 kts 58°
2026-04-11 11:41 71.85627 70.53072 33004 ft 476 kts 58°
2026-04-11 11:42 71.88665 70.71997 33004 ft 476 kts 59°
2026-04-11 11:42 71.91689 70.91012 33002 ft 476 kts 59°
2026-04-11 11:43 71.94664 71.09899 33004 ft 476 kts 59°
2026-04-11 11:43 71.97640 71.28963 33005 ft 476 kts 59°
2026-04-11 11:44 72.00598 71.48099 33001 ft 475 kts 60°
2026-04-11 11:44 72.03534 71.67275 33007 ft 475 kts 60°
2026-04-11 11:45 72.06453 71.86520 33006 ft 475 kts 60°
2026-04-11 11:45 72.09356 72.05850 33007 ft 475 kts 60°
2026-04-11 11:46 72.12214 72.25062 33009 ft 475 kts 60°
2026-04-11 11:46 72.15072 72.44464 33010 ft 475 kts 61°
2026-04-11 11:47 72.17907 72.63895 33018 ft 474 kts 61°
2026-04-11 11:47 72.20732 72.83457 33024 ft 474 kts 61°
2026-04-11 11:48 72.23526 73.02994 33025 ft 474 kts 62°
2026-04-11 11:48 72.26303 73.22611 33028 ft 474 kts 62°
2026-04-11 11:49 72.29041 73.42148 33020 ft 474 kts 62°
2026-04-11 11:49 72.31777 73.61868 33024 ft 474 kts 62°
2026-04-11 11:50 72.34488 73.81604 33023 ft 473 kts 63°
2026-04-11 11:50 72.37188 74.01470 33027 ft 473 kts 63°
2026-04-11 11:51 72.39861 74.21335 33034 ft 473 kts 63°
2026-04-11 11:51 72.42497 74.41135 33032 ft 473 kts 63°
2026-04-11 11:52 72.45133 74.61137 33029 ft 473 kts 63°
2026-04-11 11:52 72.47743 74.81153 33030 ft 472 kts 64°
2026-04-11 11:53 72.50336 75.01229 33031 ft 472 kts 64°
2026-04-11 11:53 72.52901 75.21318 33035 ft 471 kts 64°
2026-04-11 11:54 72.55438 75.41434 33014 ft 471 kts 64°
2026-04-11 11:54 72.57940 75.61487 33041 ft 471 kts 64°
2026-04-11 11:55 72.60439 75.81721 33048 ft 470 kts 64°
2026-04-11 11:55 72.62913 76.01961 33029 ft 470 kts 65°
2026-04-11 11:56 72.65368 76.22275 33041 ft 469 kts 65°
2026-04-11 11:56 72.67803 76.42648 33040 ft 469 kts 65°
2026-04-11 11:57 72.70211 76.63023 33041 ft 469 kts 65°
2026-04-11 11:57 72.72582 76.83310 33039 ft 469 kts 65°
2026-04-11 11:58 72.74951 77.03814 33044 ft 469 kts 66°
2026-04-11 11:58 72.77302 77.24397 33042 ft 469 kts 66°
2026-04-11 11:59 72.79627 77.44991 33051 ft 469 kts 66°
2026-04-11 11:59 72.81917 77.65504 33053 ft 469 kts 66°
2026-04-11 12:00 72.84202 77.86224 33045 ft 469 kts 66°
2026-04-11 12:00 72.86464 78.06979 33052 ft 469 kts 66°
2026-04-11 12:01 72.88704 78.27773 33060 ft 469 kts 67°
2026-04-11 12:01 72.90924 78.48634 33056 ft 469 kts 67°
2026-04-11 12:02 72.93121 78.69535 33058 ft 469 kts 67°
2026-04-11 12:02 72.95279 78.90316 33055 ft 469 kts 67°
2026-04-11 12:03 72.97428 79.11273 33054 ft 468 kts 68°
2026-04-11 12:03 72.99560 79.32322 33056 ft 468 kts 68°
2026-04-11 12:04 73.01673 79.53448 33052 ft 468 kts 68°
2026-04-11 12:04 73.03760 79.74580 33057 ft 468 kts 68°
2026-04-11 12:05 73.05821 79.95725 33060 ft 468 kts 68°
2026-04-11 12:05 73.07861 80.16925 33062 ft 467 kts 69°
2026-04-11 12:06 73.09877 80.38149 33056 ft 467 kts 69°
2026-04-11 12:06 73.11862 80.59322 33057 ft 467 kts 69°
2026-04-11 12:07 73.13834 80.80646 33060 ft 467 kts 69°
2026-04-11 12:07 73.15789 81.02069 33065 ft 467 kts 69°
2026-04-11 12:08 73.17705 81.23354 33067 ft 467 kts 70°
2026-04-11 12:08 73.19612 81.44836 33067 ft 467 kts 70°
2026-04-11 12:09 73.21498 81.66374 33065 ft 467 kts 70°
2026-04-11 12:09 73.23356 81.87908 33065 ft 466 kts 70°
2026-04-11 12:10 73.25182 82.09357 33069 ft 466 kts 70°
2026-04-11 12:10 73.26990 82.30921 33075 ft 466 kts 70°
2026-04-11 12:11 73.28779 82.52548 33071 ft 465 kts 71°
2026-04-11 12:11 73.30544 82.74216 33074 ft 465 kts 71°
2026-04-11 12:12 73.32279 82.95832 33081 ft 465 kts 71°
2026-04-11 12:12 73.34007 83.17687 33074 ft 465 kts 71°
2026-04-11 12:13 73.35691 83.39314 33084 ft 465 kts 71°
2026-04-11 12:13 73.37364 83.61141 33077 ft 465 kts 72°
2026-04-11 12:14 73.39013 83.82979 33080 ft 465 kts 72°
2026-04-11 12:14 73.40643 84.04921 33083 ft 465 kts 72°
2026-04-11 12:15 73.42249 84.26827 33085 ft 465 kts 72°
2026-04-11 12:15 73.43831 84.48833 33090 ft 465 kts 72°
2026-04-11 12:16 73.45378 84.70766 33086 ft 465 kts 73°
2026-04-11 12:16 73.46910 84.92814 33092 ft 465 kts 73°
2026-04-11 12:17 73.48422 85.14924 33087 ft 465 kts 73°
2026-04-11 12:17 73.49912 85.37091 33091 ft 465 kts 73°
2026-04-11 12:18 73.51366 85.59111 33089 ft 465 kts 74°
2026-04-11 12:19 73.53522 85.92483 33092 ft 465 kts 74°
2026-04-11 12:19 73.54931 86.14795 33086 ft 465 kts 74°
2026-04-11 12:20 73.56309 86.37025 33326 ft 468 kts 75°
2026-04-11 12:20 73.56994 86.48240 33648 ft 467 kts 75°
2026-04-11 12:20 73.57674 86.59475 33967 ft 467 kts 75°
2026-04-11 12:20 73.58347 86.70693 34232 ft 467 kts 75°
2026-04-11 12:21 73.59013 86.81921 34425 ft 467 kts 75°
2026-04-11 12:21 73.59677 86.93207 34655 ft 467 kts 75°
2026-04-11 12:21 73.60335 87.04504 34877 ft 467 kts 75°
2026-04-11 12:21 73.60986 87.15796 34996 ft 469 kts 75°
2026-04-11 12:22 73.61627 87.27035 35042 ft 470 kts 76°
2026-04-11 12:22 73.62901 87.49704 35084 ft 468 kts 76°
2026-04-11 12:23 73.63939 87.68554 35091 ft 466 kts 76°
2026-04-11 12:23 73.65160 87.91122 35093 ft 465 kts 76°
2026-04-11 12:24 73.66358 88.13740 35097 ft 465 kts 76°
2026-04-11 12:24 73.67519 88.36140 35102 ft 465 kts 77°
2026-04-11 12:25 73.68676 88.58965 35100 ft 466 kts 77°
2026-04-11 12:25 73.69795 88.81544 35096 ft 467 kts 77°
2026-04-11 12:26 73.70903 89.04406 35098 ft 467 kts 77°
2026-04-11 12:26 73.71990 89.27296 35092 ft 468 kts 78°
2026-04-11 12:27 73.73083 89.50153 35093 ft 468 kts 77°
2026-04-11 12:27 73.74182 89.72903 35089 ft 468 kts 77°
2026-04-11 12:28 73.75264 89.95803 35089 ft 467 kts 78°
2026-04-11 12:28 73.76314 90.18720 35088 ft 467 kts 78°
2026-04-11 12:29 73.77338 90.41658 35088 ft 467 kts 78°
2026-04-11 12:29 73.78336 90.64643 35084 ft 467 kts 78°
2026-04-11 12:30 73.79309 90.87609 35084 ft 467 kts 79°
2026-04-11 12:30 73.80251 91.10444 35089 ft 466 kts 79°
2026-04-11 12:31 73.81174 91.33463 35080 ft 466 kts 79°
2026-04-11 12:31 73.82073 91.56498 35085 ft 466 kts 79°
2026-04-11 12:32 73.82946 91.79563 35091 ft 466 kts 80°
2026-04-11 12:32 73.83796 92.02668 35082 ft 466 kts 80°
2026-04-11 12:33 73.84620 92.25793 35084 ft 466 kts 81°
2026-04-11 12:33 73.85414 92.48776 35078 ft 467 kts 81°
2026-04-11 12:34 73.86189 92.71973 35079 ft 467 kts 81°
2026-04-11 12:34 73.86938 92.95141 35075 ft 467 kts 81°
2026-04-11 12:35 73.87662 93.18322 35072 ft 467 kts 82°
2026-04-11 12:35 73.88361 93.41562 35074 ft 467 kts 82°
2026-04-11 12:36 73.89039 93.64912 35074 ft 467 kts 82°
2026-04-11 12:36 73.89684 93.88035 35075 ft 467 kts 82°
2026-04-11 12:37 73.90310 94.11388 35068 ft 467 kts 83°
2026-04-11 12:37 73.90906 94.34575 35070 ft 467 kts 83°
2026-04-11 12:38 73.91480 94.57924 35063 ft 467 kts 83°
2026-04-11 12:38 73.92029 94.81305 35070 ft 467 kts 83°
2026-04-11 12:39 73.92554 95.04697 35066 ft 467 kts 83°
2026-04-11 12:39 73.93054 95.27954 35054 ft 467 kts 84°
2026-04-11 12:40 73.93495 95.51374 35052 ft 467 kts 85°
2026-04-11 12:40 73.93815 95.74856 35051 ft 468 kts 85°
2026-04-11 12:41 73.94101 95.98361 35039 ft 468 kts 86°
2026-04-11 12:41 73.94371 96.21669 35042 ft 468 kts 86°
2026-04-11 12:42 73.94626 96.45174 35034 ft 468 kts 86°
2026-04-11 12:42 73.94858 96.68690 35042 ft 468 kts 86°
2026-04-11 12:43 73.95158 97.04035 35040 ft 468 kts 86°
2026-04-11 12:43 73.95325 97.27582 35033 ft 468 kts 87°
2026-04-11 12:44 73.95465 97.51139 35037 ft 468 kts 87°
2026-04-11 12:44 73.95581 97.74711 35039 ft 469 kts 88°
2026-04-11 12:45 73.95670 97.98124 35033 ft 469 kts 88°
2026-04-11 12:45 73.95734 98.21718 35036 ft 469 kts 88°
2026-04-11 12:46 73.95773 98.45334 35040 ft 469 kts 88°
2026-04-11 12:46 73.95785 98.69001 35037 ft 469 kts 89°
2026-04-11 12:47 73.95772 98.92628 35036 ft 470 kts 89°
2026-04-11 12:47 73.95733 99.16107 35033 ft 470 kts 89°
2026-04-11 12:48 73.95668 99.39737 35033 ft 470 kts 89°
2026-04-11 12:48 73.95577 99.63377 35035 ft 470 kts 90°
2026-04-11 12:49 73.95460 99.87066 35035 ft 470 kts 90°
2026-04-11 12:49 73.95317 100.10730 35034 ft 470 kts 90°
2026-04-11 12:50 73.95149 100.34277 35036 ft 471 kts 90°
2026-04-11 12:50 73.94954 100.57908 35036 ft 471 kts 90°
2026-04-11 12:51 73.94732 100.81638 35030 ft 471 kts 91°
2026-04-11 12:51 73.94487 101.05149 35030 ft 471 kts 91°
2026-04-11 12:52 73.94213 101.28876 35031 ft 472 kts 91°
2026-04-11 12:52 73.93916 101.52445 35033 ft 472 kts 91°
2026-04-11 12:53 73.93590 101.76144 35036 ft 472 kts 92°
2026-04-11 12:53 73.93239 101.99826 35032 ft 472 kts 92°
2026-04-11 12:54 73.92863 102.23375 35031 ft 472 kts 92°
2026-04-11 12:54 73.92460 102.47044 35032 ft 472 kts 92°
2026-04-11 12:55 73.92030 102.70715 35033 ft 473 kts 93°
2026-04-11 12:55 73.91574 102.94392 35033 ft 473 kts 93°
2026-04-11 12:56 73.91094 103.17963 35032 ft 473 kts 93°
2026-04-11 12:56 73.90586 103.41599 35034 ft 473 kts 94°
2026-04-11 12:57 73.90051 103.65235 35032 ft 473 kts 94°
2026-04-11 12:57 73.89491 103.88891 35029 ft 474 kts 94°
2026-04-11 12:58 73.88903 104.12553 35029 ft 474 kts 94°
2026-04-11 12:58 73.88293 104.36057 35033 ft 474 kts 95°
2026-04-11 12:59 73.87653 104.59707 35027 ft 474 kts 95°
2026-04-11 12:59 73.86988 104.83332 35029 ft 474 kts 95°
2026-04-11 13:00 73.86296 105.06919 35021 ft 474 kts 95°
2026-04-11 13:00 73.85578 105.30507 35027 ft 474 kts 96°
2026-04-11 13:01 73.84457 105.65740 35022 ft 475 kts 96°
2026-04-11 13:02 73.83674 105.89275 35026 ft 475 kts 96°
2026-04-11 13:02 73.82865 106.12816 35026 ft 475 kts 96°
2026-04-11 13:03 73.82028 106.36390 35022 ft 476 kts 97°
2026-04-11 13:03 73.81166 106.59916 35022 ft 476 kts 97°
2026-04-11 13:04 73.80280 106.83360 35023 ft 476 kts 97°
2026-04-11 13:04 73.79365 107.06857 35031 ft 476 kts 97°
2026-04-11 13:05 73.78424 107.30355 35024 ft 477 kts 98°
2026-04-11 13:05 73.77457 107.53825 35019 ft 477 kts 98°
2026-04-11 13:06 73.76471 107.77099 35024 ft 477 kts 98°
2026-04-11 13:06 73.75452 108.00512 35022 ft 477 kts 98°
2026-04-11 13:07 73.74578 108.20132 35017 ft 477 kts 99°
2026-04-11 13:07 73.73519 108.43351 35015 ft 477 kts 99°
2026-04-11 13:08 73.72430 108.66632 35023 ft 476 kts 99°
2026-04-11 13:08 73.71316 108.89879 35021 ft 475 kts 99°
2026-04-11 13:09 73.70176 109.13124 35021 ft 475 kts 99°
2026-04-11 13:09 73.69020 109.36130 35018 ft 475 kts 100°
2026-04-11 13:10 73.67830 109.59291 35014 ft 475 kts 100°
2026-04-11 13:10 73.66615 109.82408 35011 ft 475 kts 100°
2026-04-11 13:11 73.65374 110.05512 35020 ft 476 kts 101°
2026-04-11 13:11 73.64116 110.28420 35019 ft 476 kts 101°
2026-04-11 13:12 73.62823 110.51497 35019 ft 477 kts 101°
2026-04-11 13:12 73.61504 110.74551 35014 ft 477 kts 101°
2026-04-11 13:13 73.60159 110.97578 35025 ft 478 kts 101°
2026-04-11 13:13 73.58783 111.20670 35019 ft 479 kts 102°
2026-04-11 13:14 73.57382 111.43707 35025 ft 478 kts 102°
2026-04-11 13:14 73.55963 111.66614 35015 ft 477 kts 102°
2026-04-11 13:15 73.54527 111.89347 35027 ft 476 kts 102°
2026-04-11 13:15 73.53061 112.12129 35024 ft 476 kts 103°
2026-04-11 13:16 73.51571 112.34864 35025 ft 475 kts 103°
2026-04-11 13:16 73.50062 112.57479 35025 ft 475 kts 103°
2026-04-11 13:17 73.48524 112.80119 35028 ft 476 kts 103°
2026-04-11 13:17 73.46967 113.02656 35026 ft 478 kts 104°
2026-04-11 13:18 73.45370 113.25363 35031 ft 479 kts 104°
2026-04-11 13:18 73.43745 113.48079 35033 ft 481 kts 104°
2026-04-11 13:19 73.42091 113.70828 35032 ft 482 kts 104°
2026-04-11 13:19 73.40410 113.93614 35022 ft 483 kts 105°
2026-04-11 13:20 73.38746 114.16208 35032 ft 483 kts 104°
2026-04-11 13:20 73.37134 114.39015 35035 ft 483 kts 104°
2026-04-11 13:21 73.35509 114.61833 35035 ft 483 kts 104°
2026-04-11 13:21 73.33857 114.84514 35038 ft 483 kts 105°
2026-04-11 13:22 73.32182 115.07009 35041 ft 483 kts 105°
2026-04-11 13:22 73.30468 115.29631 35039 ft 482 kts 105°
2026-04-11 13:23 73.28734 115.52150 35045 ft 482 kts 105°
2026-04-11 13:23 73.26974 115.74642 35043 ft 482 kts 105°
2026-04-11 13:24 73.25193 115.97066 35040 ft 482 kts 106°
2026-04-11 13:24 73.23384 116.19478 35046 ft 483 kts 106°
2026-04-11 13:25 73.21561 116.41729 35039 ft 484 kts 106°
2026-04-11 13:25 73.19698 116.64111 35051 ft 484 kts 107°
2026-04-11 13:26 73.17812 116.86446 35049 ft 485 kts 107°
2026-04-11 13:26 73.15900 117.08754 35046 ft 485 kts 107°
2026-04-11 13:27 73.13959 117.31060 35044 ft 485 kts 107°
2026-04-11 13:27 73.11995 117.53309 35044 ft 485 kts 108°
2026-04-11 13:28 73.10005 117.75530 35051 ft 485 kts 108°
2026-04-11 13:28 73.08008 117.97515 35052 ft 485 kts 108°
2026-04-11 13:29 73.05973 118.19609 35051 ft 485 kts 108°
2026-04-11 13:29 73.03916 118.41620 35053 ft 485 kts 108°
2026-04-11 13:30 73.01831 118.63635 35059 ft 486 kts 109°
2026-04-11 13:30 72.99721 118.85619 35056 ft 486 kts 109°
2026-04-11 13:31 72.97584 119.07583 35064 ft 487 kts 109°
2026-04-11 13:31 72.95425 119.29470 35063 ft 487 kts 109°
2026-04-11 13:32 72.93240 119.51331 35065 ft 487 kts 109°
2026-04-11 13:32 72.91027 119.73185 35064 ft 488 kts 110°
2026-04-11 13:33 72.88792 119.94972 35072 ft 488 kts 110°
2026-04-11 13:33 72.86546 120.16586 35076 ft 489 kts 110°
2026-04-11 13:34 72.84257 120.38333 35070 ft 489 kts 110°
2026-04-11 13:34 72.81946 120.60021 35079 ft 489 kts 111°
2026-04-11 13:35 72.79623 120.81543 35080 ft 489 kts 111°
2026-04-11 13:35 72.77251 121.03244 35080 ft 489 kts 111°
2026-04-11 13:36 72.74884 121.24634 35085 ft 490 kts 111°
2026-04-11 13:36 72.72481 121.46088 35085 ft 490 kts 111°
2026-04-11 13:37 72.70050 121.67535 35094 ft 490 kts 112°
2026-04-11 13:37 72.67596 121.88915 35094 ft 490 kts 112°
2026-04-11 13:38 72.65136 122.10108 35096 ft 491 kts 112°
2026-04-11 13:38 72.62636 122.31385 35098 ft 491 kts 112°
2026-04-11 13:39 72.60110 122.52631 35098 ft 491 kts 112°
2026-04-11 13:39 72.57558 122.73843 35098 ft 492 kts 113°
2026-04-11 13:40 72.54989 122.94961 35098 ft 492 kts 113°
2026-04-11 13:40 72.52405 123.15953 35096 ft 492 kts 113°
2026-04-11 13:41 72.49785 123.36995 35101 ft 492 kts 114°
2026-04-11 13:41 72.47142 123.57988 35097 ft 492 kts 114°
2026-04-11 13:42 72.44479 123.78900 35097 ft 492 kts 114°
2026-04-11 13:42 72.41792 123.99765 35099 ft 492 kts 114°
2026-04-11 13:43 72.39092 124.20510 35099 ft 492 kts 114°
2026-04-11 13:43 72.36364 124.41231 35100 ft 492 kts 115°
2026-04-11 13:44 72.33605 124.61973 35099 ft 492 kts 115°
2026-04-11 13:44 72.30852 124.82445 35100 ft 492 kts 115°
2026-04-11 13:45 72.28070 125.02899 35100 ft 492 kts 115°
2026-04-11 13:45 72.25264 125.23323 35103 ft 492 kts 115°
2026-04-11 13:46 72.22395 125.43990 35101 ft 492 kts 116°
2026-04-11 13:46 72.20021 125.60919 35100 ft 492 kts 116°
2026-04-11 13:47 72.17157 125.81148 35102 ft 493 kts 116°
2026-04-11 13:47 72.14232 126.01591 35106 ft 493 kts 116°
2026-04-11 13:48 72.11318 126.21761 35104 ft 493 kts 116°
2026-04-11 13:48 72.08351 126.42079 35109 ft 493 kts 116°
2026-04-11 13:49 72.05440 126.61815 35113 ft 493 kts 116°
2026-04-11 13:49 72.02424 126.82054 35111 ft 493 kts 117°
2026-04-11 13:50 71.99415 127.02052 35111 ft 493 kts 117°
2026-04-11 13:50 71.96394 127.21923 35126 ft 493 kts 117°
2026-04-11 13:51 71.93353 127.41744 35105 ft 493 kts 117°
2026-04-11 13:51 71.90308 127.61414 35128 ft 493 kts 118°
2026-04-11 13:52 71.87220 127.81104 35125 ft 493 kts 118°
2026-04-11 13:52 71.84110 128.00734 35104 ft 493 kts 118°
2026-04-11 13:53 71.80983 128.20316 35120 ft 494 kts 118°
2026-04-11 13:53 71.77816 128.39968 35122 ft 495 kts 118°
2026-04-11 13:54 71.74643 128.59491 35115 ft 496 kts 118°
2026-04-11 13:54 71.71512 128.78957 35114 ft 497 kts 114°
2026-04-11 13:55 71.69478 129.00011 35120 ft 499 kts 102°
2026-04-11 13:55 71.68770 129.22025 35122 ft 500 kts 94°
2026-04-11 13:56 71.68370 129.44055 35118 ft 501 kts 94°
2026-04-11 13:56 71.67898 129.66218 35119 ft 500 kts 95°
2026-04-11 13:57 71.67362 129.88308 35118 ft 500 kts 95°
2026-04-11 13:57 71.66800 130.10306 35123 ft 499 kts 95°
2026-04-11 13:58 71.66224 130.32134 35121 ft 498 kts 96°
2026-04-11 13:58 71.65610 130.54042 35118 ft 498 kts 96°
2026-04-11 13:59 71.64967 130.75929 35118 ft 498 kts 96°
2026-04-11 13:59 71.64303 130.97805 35118 ft 498 kts 96°
2026-04-11 14:00 71.63616 131.19659 35117 ft 498 kts 96°
2026-04-11 14:00 71.62537 131.52469 35116 ft 499 kts 97°
2026-04-11 14:01 71.61791 131.74204 35123 ft 499 kts 97°
2026-04-11 14:01 71.61012 131.96115 35119 ft 500 kts 97°
2026-04-11 14:02 71.60210 132.17978 35119 ft 500 kts 97°
2026-04-11 14:02 71.59382 132.39865 35118 ft 500 kts 98°
2026-04-11 14:03 71.58528 132.61727 35123 ft 500 kts 98°
2026-04-11 14:03 71.57650 132.83560 35119 ft 500 kts 98°
2026-04-11 14:04 71.56754 133.05215 35119 ft 500 kts 98°
2026-04-11 14:04 71.55830 133.26928 35117 ft 499 kts 98°
2026-04-11 14:05 71.54869 133.48880 35122 ft 499 kts 99°
2026-04-11 14:05 71.53894 133.70573 35124 ft 499 kts 99°
2026-04-11 14:06 71.52894 133.92269 35125 ft 499 kts 99°
2026-04-11 14:06 71.51873 134.13948 35124 ft 500 kts 99°
2026-04-11 14:07 71.50830 134.35694 35121 ft 500 kts 99°
2026-04-11 14:07 71.49819 134.57238 35123 ft 500 kts 99°
2026-04-11 14:08 71.48786 134.78947 35122 ft 501 kts 99°
2026-04-11 14:08 71.47725 135.00598 35118 ft 501 kts 100°
2026-04-11 14:09 71.46633 135.22262 35120 ft 501 kts 100°
2026-04-11 14:09 71.45516 135.43902 35122 ft 502 kts 100°
2026-04-11 14:10 71.44381 135.65411 35117 ft 502 kts 100°
2026-04-11 14:10 71.43215 135.87036 35120 ft 502 kts 100°
2026-04-11 14:11 71.42028 136.08626 35121 ft 502 kts 101°
2026-04-11 14:11 71.41089 136.30321 35125 ft 502 kts 97°
2026-04-11 14:12 71.40333 136.51959 35123 ft 502 kts 97°
2026-04-11 14:12 71.39552 136.73719 35120 ft 502 kts 97°
2026-04-11 14:13 71.38725 136.95426 35118 ft 502 kts 97°
2026-04-11 14:13 71.37861 137.17156 35119 ft 502 kts 98°
2026-04-11 14:14 71.36972 137.38855 35119 ft 502 kts 98°
2026-04-11 14:14 71.36084 137.59941 35122 ft 502 kts 98°
2026-04-11 14:15 71.35148 137.81593 35122 ft 502 kts 98°
2026-04-11 14:15 71.34188 138.03213 35122 ft 502 kts 98°
2026-04-11 14:16 71.33212 138.24635 35125 ft 501 kts 99°
2026-04-11 14:16 71.32208 138.46095 35121 ft 501 kts 99°
2026-04-11 14:17 71.31171 138.67712 35120 ft 501 kts 99°
2026-04-11 14:17 71.30115 138.89203 35123 ft 501 kts 99°
2026-04-11 14:18 71.29037 139.10704 35125 ft 501 kts 99°
2026-04-11 14:18 71.27929 139.32107 35126 ft 501 kts 100°
2026-04-11 14:19 71.26775 139.53574 35122 ft 501 kts 100°
2026-04-11 14:19 71.25601 139.74967 35120 ft 501 kts 100°
2026-04-11 14:20 71.24416 139.96149 35121 ft 501 kts 101°
2026-04-11 14:20 71.23199 140.17487 35122 ft 501 kts 101°
2026-04-11 14:21 71.21957 140.38806 35122 ft 501 kts 101°
2026-04-11 14:21 71.20694 140.60052 35122 ft 500 kts 101°
2026-04-11 14:22 71.19412 140.81173 35125 ft 500 kts 101°
2026-04-11 14:22 71.18322 140.98808 35116 ft 500 kts 102°
2026-04-11 14:23 71.16991 141.19978 35124 ft 501 kts 102°
2026-04-11 14:23 71.15634 141.41145 35121 ft 501 kts 102°
2026-04-11 14:24 71.14253 141.62286 35124 ft 501 kts 102°
2026-04-11 14:24 71.12857 141.83259 35123 ft 501 kts 102°
2026-04-11 14:25 71.11430 142.04318 35124 ft 501 kts 103°
2026-04-11 14:25 71.09978 142.25361 35129 ft 501 kts 103°
2026-04-11 14:26 71.08504 142.46353 35123 ft 501 kts 103°
2026-04-11 14:26 71.07006 142.67331 35123 ft 501 kts 103°
2026-04-11 14:27 71.05484 142.88267 35130 ft 501 kts 103°
2026-04-11 14:27 71.03939 143.09175 35123 ft 501 kts 104°
2026-04-11 14:28 71.02371 143.30043 35122 ft 501 kts 104°
2026-04-11 14:28 71.00786 143.50806 35122 ft 500 kts 104°
2026-04-11 14:29 70.99177 143.71590 35130 ft 500 kts 104°
2026-04-11 14:29 70.97572 143.92337 35126 ft 500 kts 104°
2026-04-11 14:30 70.96000 144.13137 35123 ft 500 kts 104°
2026-04-11 14:30 70.94416 144.33849 35127 ft 499 kts 104°
2026-04-11 14:31 70.92811 144.54390 35140 ft 499 kts 104°
2026-04-11 14:31 70.91170 144.75014 35127 ft 499 kts 105°
2026-04-11 14:32 70.89503 144.95631 35121 ft 499 kts 105°
2026-04-11 14:32 70.87817 145.16184 35120 ft 499 kts 105°
2026-04-11 14:33 70.86107 145.36706 35131 ft 499 kts 105°
2026-04-11 14:33 70.84386 145.57063 35130 ft 499 kts 105°
2026-04-11 14:34 70.82633 145.77495 35128 ft 499 kts 106°
2026-04-11 14:34 70.80863 145.97836 35125 ft 498 kts 106°
2026-04-11 14:35 70.79062 146.18266 35128 ft 498 kts 106°
2026-04-11 14:35 70.77238 146.38612 35127 ft 498 kts 107°
2026-04-11 14:36 70.75357 146.58848 35129 ft 498 kts 107°
2026-04-11 14:36 70.73451 146.78998 35130 ft 498 kts 107°
2026-04-11 14:37 70.71543 146.98976 35132 ft 497 kts 107°
2026-04-11 14:37 70.69600 147.19100 35130 ft 497 kts 107°
2026-04-11 14:38 70.67638 147.39157 35133 ft 497 kts 108°
2026-04-11 14:38 70.65655 147.59163 35134 ft 497 kts 108°
2026-04-11 14:39 70.63651 147.79154 35140 ft 497 kts 108°
2026-04-11 14:39 70.61657 147.98954 35135 ft 497 kts 107°
2026-04-11 14:40 70.59719 148.18917 35139 ft 497 kts 107°
2026-04-11 14:40 70.57774 148.38870 35137 ft 497 kts 107°
2026-04-11 14:41 70.55889 148.57842 35136 ft 496 kts 108°
2026-04-11 14:41 70.53884 148.77706 35135 ft 496 kts 108°
2026-04-11 14:42 70.51860 148.97506 35135 ft 496 kts 108°
2026-04-11 14:43 70.48784 149.27150 35139 ft 496 kts 108°
2026-04-11 14:43 70.46728 149.46677 35137 ft 496 kts 109°
2026-04-11 14:44 70.44596 149.66305 35144 ft 496 kts 109°
2026-04-11 14:44 70.42427 149.85882 35141 ft 496 kts 109°
2026-04-11 14:45 70.40243 150.05422 35145 ft 496 kts 109°
2026-04-11 14:45 70.38057 150.24795 35144 ft 496 kts 109°
2026-04-11 14:46 70.35836 150.44264 35142 ft 496 kts 110°
2026-04-11 14:46 70.33598 150.63657 35150 ft 496 kts 110°
2026-04-11 14:47 70.31339 150.83010 35148 ft 496 kts 110°
2026-04-11 14:47 70.29059 151.02314 35151 ft 495 kts 110°
2026-04-11 14:48 70.26775 151.21439 35150 ft 495 kts 110°
2026-04-11 14:48 70.24455 151.40663 35150 ft 495 kts 110°
2026-04-11 14:49 70.22118 151.59804 35150 ft 495 kts 111°
2026-04-11 14:49 70.18576 151.88429 35154 ft 495 kts 111°
2026-04-11 14:50 70.16205 152.07341 35157 ft 494 kts 111°
2026-04-11 14:50 70.13804 152.26315 35155 ft 494 kts 111°
2026-04-11 14:51 70.11433 152.45305 35155 ft 494 kts 110°
2026-04-11 14:51 70.09122 152.64176 35155 ft 494 kts 110°
2026-04-11 14:52 70.06777 152.83119 35154 ft 493 kts 111°
2026-04-11 14:52 70.04403 153.02005 35156 ft 493 kts 111°
2026-04-11 14:53 70.02018 153.20731 35155 ft 493 kts 111°
2026-04-11 14:53 69.99588 153.39615 35156 ft 493 kts 111°
2026-04-11 14:54 69.97172 153.58206 35158 ft 493 kts 111°
2026-04-11 14:54 69.94721 153.76865 35160 ft 493 kts 112°
2026-04-11 14:55 69.92246 153.95521 35160 ft 493 kts 112°
2026-04-11 14:55 69.89751 154.14135 35163 ft 493 kts 112°
2026-04-11 14:56 69.87254 154.32575 35168 ft 493 kts 112°
2026-04-11 14:56 69.84727 154.51061 35164 ft 493 kts 112°
2026-04-11 14:57 69.82180 154.69526 35164 ft 493 kts 112°
2026-04-11 14:57 69.79610 154.87981 35167 ft 493 kts 112°
2026-04-11 14:58 69.77037 155.06374 35166 ft 493 kts 113°
2026-04-11 14:58 69.74468 155.24597 35166 ft 493 kts 113°
2026-04-11 14:59 69.71861 155.42913 35168 ft 493 kts 113°
2026-04-11 14:59 69.69236 155.61168 35168 ft 493 kts 113°
2026-04-11 15:00 69.66592 155.79378 35164 ft 492 kts 114°
2026-04-11 15:00 69.63947 155.97425 35170 ft 492 kts 114°
2026-04-11 15:01 69.61279 156.15448 35177 ft 492 kts 114°
2026-04-11 15:01 69.58585 156.33485 35173 ft 492 kts 114°
2026-04-11 15:02 69.55874 156.51463 35173 ft 491 kts 114°
2026-04-11 15:02 69.53146 156.69382 35174 ft 491 kts 114°
2026-04-11 15:03 69.50396 156.87286 35175 ft 491 kts 115°
2026-04-11 15:03 69.47651 157.04993 35174 ft 491 kts 115°
2026-04-11 15:04 69.44871 157.22767 35174 ft 490 kts 115°
2026-04-11 15:04 69.42077 157.40474 35175 ft 490 kts 115°
2026-04-11 15:05 69.39746 157.55137 35173 ft 490 kts 115°
2026-04-11 15:05 69.36926 157.72743 35182 ft 490 kts 115°
2026-04-11 15:06 69.33652 157.93149 35184 ft 489 kts 115°
2026-04-11 15:06 69.31289 158.07771 35175 ft 489 kts 115°
2026-04-11 15:07 69.28444 158.25244 35173 ft 489 kts 115°
2026-04-11 15:07 69.25573 158.42707 35190 ft 489 kts 116°
2026-04-11 15:08 69.22702 158.60117 35188 ft 489 kts 115°
2026-04-11 15:08 69.19845 158.77357 35183 ft 489 kts 116°
2026-04-11 15:09 69.16951 158.94678 35185 ft 489 kts 116°
2026-04-11 15:09 69.14041 159.11932 35186 ft 489 kts 116°
2026-04-11 15:10 69.11108 159.29171 35184 ft 489 kts 116°
2026-04-11 15:10 69.08175 159.46261 35181 ft 489 kts 116°
2026-04-11 15:11 69.05210 159.63399 35184 ft 489 kts 116°
2026-04-11 15:11 69.02250 159.80359 35186 ft 489 kts 116°
2026-04-11 15:12 68.99252 159.97400 35187 ft 489 kts 117°
2026-04-11 15:12 68.96237 160.14395 35187 ft 489 kts 117°
2026-04-11 15:13 68.93212 160.31317 35190 ft 489 kts 117°
2026-04-11 15:13 68.90168 160.48192 35186 ft 489 kts 117°
2026-04-11 15:14 68.87073 160.64884 35188 ft 489 kts 118°
2026-04-11 15:14 68.83938 160.81574 35188 ft 488 kts 118°
2026-04-11 15:15 68.80791 160.98252 35193 ft 488 kts 118°
2026-04-11 15:15 68.77634 161.14890 35190 ft 488 kts 118°
2026-04-11 15:16 68.74464 161.31464 35188 ft 488 kts 118°
2026-04-11 15:16 68.71562 161.48398 35198 ft 488 kts 115°
2026-04-11 15:17 68.68791 161.65358 35197 ft 488 kts 115°
2026-04-11 15:17 68.65969 161.82376 35196 ft 488 kts 115°
2026-04-11 15:18 68.63139 161.99197 35193 ft 488 kts 115°
2026-04-11 15:18 68.60281 162.16054 35196 ft 488 kts 115°
2026-04-11 15:19 68.57388 162.32916 35193 ft 488 kts 116°
2026-04-11 15:19 68.54455 162.49710 35193 ft 488 kts 116°
2026-04-11 15:20 68.51529 162.66327 35188 ft 488 kts 116°
2026-04-11 15:20 68.48573 162.83009 35191 ft 488 kts 116°
2026-04-11 15:21 68.45600 162.99666 35189 ft 488 kts 116°
2026-04-11 15:21 68.42613 163.16260 35189 ft 488 kts 116°
2026-04-11 15:22 68.39611 163.32801 35189 ft 488 kts 117°
2026-04-11 15:22 68.36605 163.49239 35194 ft 489 kts 117°
2026-04-11 15:23 68.33566 163.65716 35188 ft 489 kts 117°
2026-04-11 15:23 68.30509 163.82166 35191 ft 489 kts 117°
2026-04-11 15:24 68.27434 163.98579 35192 ft 489 kts 117°
2026-04-11 15:24 68.24346 164.14940 35190 ft 489 kts 117°
2026-04-11 15:25 68.21264 164.31149 35191 ft 489 kts 118°
2026-04-11 15:25 68.18121 164.47436 35188 ft 489 kts 118°
2026-04-11 15:26 68.14973 164.63625 35193 ft 489 kts 118°
2026-04-11 15:26 68.11831 164.79681 35187 ft 488 kts 118°
2026-04-11 15:27 68.08658 164.95792 35188 ft 488 kts 118°
2026-04-11 15:27 68.05474 165.11857 35185 ft 488 kts 118°
2026-04-11 15:28 68.02271 165.27892 35179 ft 488 kts 118°
2026-04-11 15:28 67.99075 165.43771 35179 ft 488 kts 118°
2026-04-11 15:29 67.95840 165.59725 35177 ft 488 kts 119°
2026-04-11 15:29 67.92593 165.75614 35178 ft 488 kts 119°
2026-04-11 15:30 67.89350 165.91376 35176 ft 488 kts 119°
2026-04-11 15:30 67.86072 166.07200 35171 ft 488 kts 119°
2026-04-11 15:31 67.82781 166.22977 35169 ft 488 kts 119°
2026-04-11 15:31 67.79510 166.38637 35168 ft 488 kts 120°
2026-04-11 15:32 67.76217 166.54314 35161 ft 488 kts 120°
2026-04-11 15:32 67.72906 166.69951 35159 ft 488 kts 120°
2026-04-11 15:33 67.69580 166.85544 35150 ft 488 kts 120°
2026-04-11 15:33 67.66259 167.00997 35148 ft 488 kts 120°
2026-04-11 15:34 67.62903 167.16505 35139 ft 488 kts 120°
2026-04-11 15:34 67.59535 167.31954 35138 ft 488 kts 120°
2026-04-11 15:35 67.56151 167.47380 35136 ft 488 kts 120°
2026-04-11 15:35 67.52774 167.62663 35129 ft 488 kts 121°
2026-04-11 15:36 67.49365 167.78050 35127 ft 488 kts 121°
2026-04-11 15:36 67.45949 167.93394 35122 ft 489 kts 121°
2026-04-11 15:37 67.42516 168.08705 35109 ft 489 kts 121°
2026-04-11 15:37 67.39070 168.23965 35111 ft 489 kts 121°
2026-04-11 15:38 67.35632 168.39077 35100 ft 489 kts 121°
2026-04-11 15:38 67.32150 168.54272 35098 ft 489 kts 121°
2026-04-11 15:39 67.28655 168.69427 35089 ft 490 kts 122°
2026-04-11 15:39 67.25149 168.84522 35087 ft 490 kts 122°
2026-04-11 15:40 67.21627 168.99595 35085 ft 490 kts 122°
2026-04-11 15:40 67.18114 169.14518 35082 ft 490 kts 122°
2026-04-11 15:41 67.14568 169.29504 35079 ft 490 kts 122°
2026-04-11 15:41 67.11007 169.44464 35075 ft 490 kts 122°
2026-04-11 15:42 67.07427 169.59408 35069 ft 491 kts 122°
2026-04-11 15:43 67.02028 169.81748 35058 ft 491 kts 123°
2026-04-11 15:43 66.98409 169.96595 35056 ft 492 kts 123°
2026-04-11 15:44 66.94770 170.11424 35051 ft 492 kts 123°
2026-04-11 15:44 66.91147 170.26101 35048 ft 492 kts 123°
2026-04-11 15:45 66.87481 170.40849 35044 ft 492 kts 123°
2026-04-11 15:45 66.83810 170.55550 35040 ft 492 kts 123°
2026-04-11 15:46 66.80145 170.70147 35032 ft 492 kts 123°
2026-04-11 15:46 66.78074 170.78354 35035 ft 493 kts 123°
2026-04-11 15:47 66.75219 170.89630 35026 ft 493 kts 123°
2026-04-11 15:47 66.71509 171.04193 35027 ft 493 kts 124°
2026-04-11 15:48 66.67792 171.18802 35024 ft 494 kts 123°
2026-04-11 15:48 66.64099 171.33278 35019 ft 494 kts 124°
2026-04-11 15:49 66.60366 171.47812 35020 ft 494 kts 124°
2026-04-11 15:49 66.56588 171.62414 35016 ft 495 kts 124°
2026-04-11 15:50 66.52816 171.76892 35010 ft 495 kts 124°
2026-04-11 15:50 66.49024 171.91347 34997 ft 495 kts 124°
2026-04-11 15:51 66.45247 172.05660 34984 ft 495 kts 124°
2026-04-11 15:51 66.41430 172.20027 34981 ft 496 kts 125°
2026-04-11 15:52 66.38240 172.31964 34968 ft 496 kts 125°
2026-04-11 15:52 66.34398 172.46252 34963 ft 496 kts 125°
2026-04-11 15:53 66.30540 172.60510 34951 ft 497 kts 125°
2026-04-11 15:53 66.26693 172.74642 34945 ft 497 kts 125°
2026-04-11 15:54 66.22796 172.88858 34933 ft 497 kts 126°
2026-04-11 15:54 66.18892 173.03016 34922 ft 497 kts 126°
2026-04-11 15:55 66.14975 173.17140 34920 ft 498 kts 126°
2026-04-11 15:55 66.11057 173.31274 34917 ft 499 kts 126°
2026-04-11 15:56 66.07142 173.45428 34904 ft 499 kts 126°
2026-04-11 15:56 66.03207 173.59557 34904 ft 500 kts 126°
2026-04-11 15:57 65.99262 173.73636 34896 ft 500 kts 126°
2026-04-11 15:57 65.95302 173.87697 34894 ft 500 kts 126°
2026-04-11 15:58 65.91354 174.01617 34889 ft 500 kts 126°
2026-04-11 15:58 65.87369 174.15576 34881 ft 500 kts 126°
2026-04-11 15:59 65.83376 174.29491 34864 ft 501 kts 127°
2026-04-11 15:59 65.81345 174.36536 34071 ft 513 kts 126°
2026-04-11 15:59 65.79290 174.43649 33286 ft 512 kts 126°
2026-04-11 15:59 65.77234 174.50748 32368 ft 511 kts 126°
2026-04-11 16:00 65.75191 174.57766 31625 ft 506 kts 126°
2026-04-11 16:00 65.73138 174.64660 31057 ft 497 kts 127°
2026-04-11 16:00 65.71100 174.71385 30404 ft 491 kts 127°
2026-04-11 16:00 65.69078 174.78011 29851 ft 485 kts 127°
2026-04-11 16:01 65.67089 174.84518 29236 ft 477 kts 127°
2026-04-11 16:01 65.65152 174.90852 28605 ft 470 kts 126°
2026-04-11 16:01 65.63198 174.97244 27971 ft 464 kts 126°
2026-04-11 16:01 65.61286 175.03485 27350 ft 458 kts 126°
2026-04-11 16:02 65.59399 175.09632 26757 ft 452 kts 126°
2026-04-11 16:02 65.57546 175.15655 26160 ft 447 kts 126°
2026-04-11 16:02 65.55702 175.21633 25593 ft 442 kts 126°
2026-04-11 16:02 65.53870 175.27550 25028 ft 436 kts 126°
2026-04-11 16:03 65.52061 175.33377 24510 ft 431 kts 126°
2026-04-11 16:03 65.50278 175.39111 24010 ft 426 kts 126°
2026-04-11 16:03 65.48507 175.44805 23504 ft 421 kts 126°
2026-04-11 16:03 65.46754 175.50426 22865 ft 417 kts 126°
2026-04-11 16:04 65.45018 175.55980 22225 ft 414 kts 126°
2026-04-11 16:04 65.43291 175.61493 21618 ft 410 kts 126°
2026-04-11 16:04 65.41577 175.66953 21007 ft 407 kts 126°
2026-04-11 16:04 65.39876 175.72358 20374 ft 404 kts 126°
2026-04-11 16:05 65.38189 175.77707 19885 ft 400 kts 126°
2026-04-11 16:05 65.36517 175.82992 19282 ft 397 kts 127°
2026-04-11 16:05 65.34852 175.88246 18686 ft 396 kts 127°
2026-04-11 16:06 65.31533 175.98678 17513 ft 391 kts 127°
2026-04-11 16:06 65.29890 176.03825 16923 ft 388 kts 127°
2026-04-11 16:06 65.28257 176.08934 16335 ft 385 kts 126°
2026-04-11 16:06 65.26633 176.14002 15689 ft 385 kts 126°
2026-04-11 16:07 65.25007 176.19058 15136 ft 382 kts 126°
2026-04-11 16:07 65.23390 176.23939 14635 ft 376 kts 131°
2026-04-11 16:07 65.21404 176.27999 14345 ft 369 kts 143°
2026-04-11 16:07 65.19322 176.31455 14038 ft 374 kts 144°
2026-04-11 16:08 65.17159 176.34992 13721 ft 380 kts 144°
2026-04-11 16:08 65.14977 176.38589 13371 ft 383 kts 143°
2026-04-11 16:08 65.12795 176.42224 13041 ft 380 kts 143°
2026-04-11 16:08 65.10663 176.45810 12672 ft 377 kts 143°
2026-04-11 16:09 65.08525 176.49422 12357 ft 372 kts 143°
2026-04-11 16:09 65.06433 176.52959 12036 ft 367 kts 143°
2026-04-11 16:09 65.04368 176.56452 11720 ft 363 kts 143°
2026-04-11 16:09 65.02321 176.59909 11406 ft 358 kts 143°
2026-04-11 16:10 65.00309 176.63300 11103 ft 351 kts 143°
2026-04-11 16:10 64.98337 176.66618 10801 ft 344 kts 143°
2026-04-11 16:10 64.96408 176.69859 10510 ft 338 kts 143°
2026-04-11 16:10 64.94503 176.73056 10224 ft 332 kts 143°
2026-04-11 16:11 64.92637 176.76181 9940 ft 326 kts 143°
2026-04-11 16:11 64.90822 176.79209 9683 ft 321 kts 143°
2026-04-11 16:11 64.89059 176.82145 9432 ft 296 kts 143°
2026-04-11 16:11 64.87437 176.84860 9142 ft 279 kts 142°
2026-04-11 16:12 64.85875 176.87488 8923 ft 274 kts 142°
2026-04-11 16:12 64.84323 176.90101 8665 ft 274 kts 142°
2026-04-11 16:12 64.82774 176.92706 8418 ft 273 kts 142°
2026-04-11 16:12 64.81238 176.95282 8186 ft 270 kts 142°
2026-04-11 16:13 64.79705 176.97849 7952 ft 271 kts 142°
2026-04-11 16:13 64.78172 177.00413 7727 ft 271 kts 142°
2026-04-11 16:13 64.76639 177.02973 7486 ft 270 kts 142°
2026-04-11 16:13 64.75109 177.05524 7244 ft 268 kts 142°
2026-04-11 16:14 64.73599 177.08037 7016 ft 266 kts 142°
2026-04-11 16:14 64.72087 177.10552 6801 ft 267 kts 142°
2026-04-11 16:14 64.70601 177.13017 6815 ft 266 kts 142°
2026-04-11 16:14 64.69072 177.15554 6758 ft 274 kts 142°
2026-04-11 16:15 64.67480 177.18193 6491 ft 284 kts 142°
2026-04-11 16:15 64.65868 177.20858 6238 ft 284 kts 142°
2026-04-11 16:15 64.64256 177.23518 5990 ft 281 kts 142°
2026-04-11 16:15 64.62673 177.26123 5712 ft 277 kts 142°
2026-04-11 16:16 64.61218 177.28522 5484 ft 272 kts 142°
2026-04-11 16:16 64.59680 177.31049 5263 ft 267 kts 142°
2026-04-11 16:16 64.58174 177.33522 5028 ft 263 kts 142°
2026-04-11 16:16 64.56691 177.35947 4810 ft 260 kts 143°
2026-04-11 16:17 64.55297 177.38577 4575 ft 258 kts 124°
2026-04-11 16:17 64.54563 177.42296 4406 ft 252 kts 100°
2026-04-11 16:17 64.54148 177.46263 4260 ft 253 kts 101°
2026-04-11 16:17 64.53712 177.50180 4096 ft 247 kts 101°
2026-04-11 16:18 64.53286 177.53985 3891 ft 240 kts 101°
2026-04-11 16:18 64.53157 177.57670 3643 ft 222 kts 73°
2026-04-11 16:18 64.53859 177.60578 3444 ft 203 kts 37°
2026-04-11 16:18 64.55047 177.62092 3261 ft 189 kts 20°
2026-04-11 16:19 64.56209 177.63191 3096 ft 171 kts 20°
2026-04-11 16:19 64.57297 177.64136 2871 ft 163 kts 17°
2026-04-11 16:19 64.58364 177.64892 2674 ft 158 kts 15°
2026-04-11 16:19 64.59396 177.65550 2544 ft 149 kts 14°
2026-04-11 16:20 64.60360 177.66144 2486 ft 142 kts 14°
2026-04-11 16:20 64.61333 177.66737 2451 ft 147 kts 14°
2026-04-11 16:20 64.62341 177.67352 2295 ft 155 kts 14°
2026-04-11 16:20 64.63367 177.67977 2090 ft 150 kts 13°
2026-04-11 16:21 64.64358 177.68582 1874 ft 144 kts 13°
2026-04-11 16:21 64.65295 177.69155 1669 ft 136 kts 13°
2026-04-11 16:21 64.66214 177.69714 1485 ft 138 kts 12°
2026-04-11 16:21 64.67147 177.70283 1278 ft 139 kts 11°
2026-04-11 16:22 64.68076 177.70852 1051 ft 138 kts 11°
2026-04-11 16:22 64.69005 177.71420 810 ft 136 kts 12°
2026-04-11 16:22 64.69926 177.71986 627 ft 137 kts 11°
2026-04-11 16:22 64.70850 177.72544 426 ft 136 kts 12°
2026-04-11 16:23 64.71759 177.73096 259 ft 136 kts 13°
2026-04-11 16:23 64.72655 177.73631 171 ft 127 kts 15°
2026-04-11 16:23 64.73381 177.74083 182 ft 86 kts 14°
2026-04-11 16:23 64.73811 177.74351 205 ft 42 kts 15°
2026-04-11 16:24 64.74031 177.74490 201 ft 28 kts 15°
2026-04-11 16:24 64.74177 177.74594 201 ft 15 kts 24°
2026-04-11 16:24 64.74241 177.74655 209 ft 5 kts 348°
2026-04-11 16:24 64.74247 177.74584 205 ft 5 kts 237°
2026-04-11 16:25 64.74203 177.74565 208 ft 12 kts 186°
2026-04-11 16:25 64.74040 177.74508 194 ft 29 kts 192°
2026-04-11 16:25 64.73846 177.74378 208 ft 29 kts 196°
2026-04-11 16:25 64.73654 177.74253 195 ft 29 kts 194°
2026-04-11 16:26 64.73459 177.74133 181 ft 29 kts 195°
2026-04-11 16:26 64.73264 177.74013 181 ft 29 kts 195°
2026-04-11 16:26 64.73073 177.73895 179 ft 29 kts 194°
2026-04-11 16:26 64.72878 177.73776 174 ft 29 kts 194°
2026-04-11 16:27 64.72683 177.73656 171 ft 29 kts 195°
2026-04-11 16:27 64.72488 177.73533 167 ft 29 kts 194°
2026-04-11 16:27 64.72293 177.73415 162 ft 28 kts 194°
2026-04-11 16:27 64.72128 177.73317 161 ft 21 kts 194°
2026-04-11 16:28 64.71996 177.73315 162 ft 19 kts 167°
2026-04-11 16:28 64.71872 177.73386 158 ft 18 kts 155°
2026-04-11 16:28 64.71761 177.73512 158 ft 16 kts 152°
2026-04-11 16:28 64.71685 177.73642 158 ft 12 kts 141°
2026-04-11 16:29 64.71620 177.73769 158 ft 12 kts 140°
2026-04-11 16:29 64.71563 177.73883 158 ft 8 kts 139°
2026-04-11 16:29 64.71526 177.73956 158 ft 5 kts 142°
2026-04-11 16:29 64.71494 177.73950 158 ft 4 kts 213°
2026-04-11 16:30 64.71485 177.73887 158 ft 3 kts 268°
2026-04-11 16:30 64.71485 177.73879 158 ft 0 kts 268°
2026-04-11 16:30 64.71485 177.73858 158 ft 2 kts 268°
2026-04-11 16:30 64.71485 177.73838 158 ft 0 kts 270°